| time (UTC) | temp C | wind direction | speed KPH | gust KPH | rain 1hr cm | rain 24hr cm | rain mn cm | humidity % | barometer mb |
| 20260506140055 | 8 | 0 | 0.0 | 0.0 | 0.00 | 0.03 | 0.00 | 97 | 1017.5 |
| 20260506135540 | 8 | 0 | 0.0 | 0.0 | 0.00 | 0.05 | 0.00 | 97 | 1017.5 |
| 20260506135039 | 8 | 0 | 0.0 | 0.0 | 0.00 | 0.05 | 0.00 | 97 | 1017.5 |
| 20260506134556 | 8 | 0 | 0.0 | 0.0 | 0.00 | 0.05 | 0.00 | 97 | 1017.4 |
| 20260506134042 | 8 | 0 | 0.0 | 0.0 | 0.00 | 0.05 | 0.00 | 97 | 1017.4 |
| 20260506133540 | 8 | 0 | 0.0 | 0.0 | 0.00 | 0.05 | 0.00 | 97 | 1017.3 |
| 20260506133107 | 8 | 0 | 0.0 | 0.0 | 0.00 | 0.05 | 0.00 | 97 | 1017.3 |
| 20260506132537 | 8 | 0 | 0.0 | 0.0 | 0.00 | 0.05 | 0.00 | 97 | 1017.3 |
| 20260506132043 | 8 | 0 | 0.0 | 0.0 | 0.00 | 0.05 | 0.00 | 97 | 1017.3 |
| 20260506131614 | 8 | 0 | 0.0 | 0.0 | 0.00 | 0.05 | 0.00 | 97 | 1017.2 |
| 20260506131042 | 8 | 0 | 0.0 | 0.0 | 0.00 | 0.05 | 0.00 | 97 | 1017.2 |
| 20260506130540 | 8 | 0 | 0.0 | 0.0 | 0.00 | 0.05 | 0.00 | 97 | 1017.2 |
| 20260506130048 | 8 | 0 | 0.0 | 0.0 | 0.00 | 0.05 | 0.00 | 97 | 1017.2 |
| 20260506125539 | 8 | 0 | 0.0 | 0.0 | 0.00 | 0.08 | 0.00 | 97 | 1017.1 |
| 20260506125039 | 8 | 0 | 0.0 | 0.0 | 0.00 | 0.08 | 0.00 | 97 | 1017.0 |
| 20260506124550 | 8 | 0 | 0.0 | 0.0 | 0.00 | 0.08 | 0.00 | 97 | 1016.9 |
| 20260506124039 | 8 | 0 | 0.0 | 0.0 | 0.00 | 0.08 | 0.00 | 97 | 1017.1 |
| 20260506123542 | 8 | 0 | 0.0 | 0.0 | 0.00 | 0.08 | 0.00 | 97 | 1017.1 |
| 20260506123050 | 8 | 0 | 0.0 | 0.0 | 0.00 | 0.08 | 0.00 | 97 | 1017.0 |
| 20260506122540 | 8 | 0 | 0.0 | 0.0 | 0.00 | 0.08 | 0.00 | 96 | 1017.0 |
| 20260506122041 | 8 | 0 | 0.0 | 0.0 | 0.00 | 0.08 | 0.00 | 96 | 1016.9 |
| 20260506121554 | 8 | 0 | 0.0 | 0.0 | 0.00 | 0.08 | 0.00 | 96 | 1017.0 |
| 20260506121037 | 8 | 0 | 0.0 | 0.0 | 0.00 | 0.08 | 0.00 | 97 | 1017.0 |
| 20260506120540 | 8 | 0 | 0.0 | 0.0 | 0.00 | 0.08 | 0.00 | 97 | 1016.8 |
| 20260506115537 | 8 | 0 | 0.0 | 0.0 | 0.00 | 0.08 | 0.00 | 96 | 1017.0 |
| 20260506115040 | 8 | 0 | 0.0 | 1.6 | 0.00 | 0.08 | 0.00 | 96 | 1016.9 |
| 20260506114546 | 8 | 0 | 0.0 | 1.6 | 0.00 | 0.08 | 0.00 | 96 | 1017.0 |
| 20260506114044 | 8 | 0 | 0.0 | 3.2 | 0.00 | 0.08 | 0.00 | 96 | 1016.9 |
| 20260506113540 | 9 | 0 | 0.0 | 3.2 | 0.00 | 0.08 | 0.00 | 97 | 1016.9 |
| 20260506113054 | 9 | 0 | 0.0 | 0.0 | 0.00 | 0.08 | 0.00 | 97 | 1016.8 |
| 20260506112540 | 9 | 0 | 0.0 | 0.0 | 0.00 | 0.08 | 0.00 | 96 | 1016.8 |
| 20260506112037 | 9 | 0 | 0.0 | 0.0 | 0.00 | 0.08 | 0.00 | 96 | 1016.8 |
| 20260506111548 | 9 | 0 | 0.0 | 0.0 | 0.00 | 0.08 | 0.00 | 96 | 1016.7 |
| 20260506111037 | 9 | 0 | 0.0 | 0.0 | 0.00 | 0.08 | 0.00 | 96 | 1016.7 |
| 20260506110537 | 9 | 0 | 0.0 | 0.0 | 0.00 | 0.08 | 0.00 | 96 | 1016.7 |
| 20260506110101 | 9 | 0 | 0.0 | 0.0 | 0.00 | 0.08 | 0.00 | 97 | 1016.8 |
| 20260506105540 | 9 | 0 | 0.0 | 0.0 | 0.00 | 0.08 | 0.00 | 96 | 1016.7 |
| 20260506105042 | 9 | 0 | 0.0 | 0.0 | 0.00 | 0.08 | 0.00 | 96 | 1016.7 |
| 20260506104558 | 9 | 0 | 0.0 | 0.0 | 0.00 | 0.08 | 0.00 | 96 | 1016.7 |
| 20260506104040 | 9 | 0 | 0.0 | 0.0 | 0.00 | 0.08 | 0.00 | 96 | 1016.7 |
| 20260506103540 | 10 | 0 | 0.0 | 0.0 | 0.00 | 0.08 | 0.00 | 97 | 1016.5 |
| 20260506103050 | 10 | 0 | 0.0 | 0.0 | 0.00 | 0.08 | 0.00 | 97 | 1016.6 |
| 20260506102542 | 10 | 0 | 0.0 | 0.0 | 0.00 | 0.08 | 0.00 | 96 | 1016.5 |
| 20260506102042 | 9 | 0 | 0.0 | 0.0 | 0.00 | 0.08 | 0.00 | 96 | 1016.5 |
| 20260506101549 | 9 | 0 | 0.0 | 0.0 | 0.00 | 0.08 | 0.00 | 96 | 1016.4 |
| 20260506101037 | 9 | 0 | 0.0 | 0.0 | 0.00 | 0.08 | 0.00 | 96 | 1016.3 |
| 20260506100540 | 9 | 0 | 0.0 | 0.0 | 0.00 | 0.08 | 0.00 | 96 | 1016.3 |
| 20260506100058 | 9 | 0 | 0.0 | 0.0 | 0.00 | 0.08 | 0.00 | 96 | 1016.2 |
| 20260506095539 | 9 | 0 | 0.0 | 0.0 | 0.00 | 0.10 | 0.00 | 96 | 1016.2 |
| 20260506095036 | 9 | 0 | 0.0 | 0.0 | 0.00 | 0.10 | 0.00 | 96 | 1016.1 |
| 20260506094550 | 10 | 0 | 0.0 | 0.0 | 0.00 | 0.10 | 0.00 | 96 | 1016.1 |
| 20260506094040 | 10 | 0 | 0.0 | 0.0 | 0.00 | 0.10 | 0.00 | 96 | 1016.1 |
| 20260506093537 | 10 | 0 | 0.0 | 0.0 | 0.00 | 0.10 | 0.00 | 96 | 1016.1 |
| 20260506093046 | 10 | 0 | 0.0 | 0.0 | 0.00 | 0.10 | 0.00 | 96 | 1016.0 |
| 20260506092540 | 10 | 0 | 0.0 | 0.0 | 0.00 | 0.10 | 0.00 | 96 | 1016.0 |
| 20260506092040 | 10 | 0 | 0.0 | 0.0 | 0.00 | 0.10 | 0.00 | 96 | 1015.9 |
| 20260506091545 | 10 | 0 | 0.0 | 0.0 | 0.00 | 0.10 | 0.00 | 96 | 1015.9 |
| 20260506091040 | 10 | 0 | 0.0 | 0.0 | 0.00 | 0.10 | 0.00 | 96 | 1016.0 |
| 20260506090540 | 10 | 0 | 0.0 | 0.0 | 0.00 | 0.10 | 0.00 | 96 | 1015.9 |
| 20260506090048 | 10 | 0 | 0.0 | 0.0 | 0.00 | 0.10 | 0.00 | 96 | 1015.8 |
| 20260506085539 | 10 | 0 | 0.0 | 0.0 | 0.00 | 0.15 | 0.00 | 95 | 1015.8 |
| 20260506085039 | 10 | 0 | 0.0 | 0.0 | 0.00 | 0.15 | 0.00 | 95 | 1015.7 |
| 20260506084616 | 10 | 0 | 0.0 | 0.0 | 0.00 | 0.15 | 0.00 | 95 | 1015.8 |
| 20260506084039 | 10 | 0 | 0.0 | 0.0 | 0.00 | 0.15 | 0.00 | 95 | 1015.7 |
| 20260506083538 | 10 | 0 | 0.0 | 0.0 | 0.00 | 0.15 | 0.00 | 95 | 1016.0 |
| 20260506083049 | 10 | 0 | 0.0 | 0.0 | 0.00 | 0.15 | 0.00 | 95 | 1016.1 |
| 20260506082541 | 10 | 0 | 0.0 | 0.0 | 0.00 | 0.15 | 0.00 | 96 | 1016.0 |
| 20260506082036 | 10 | 0 | 0.0 | 0.0 | 0.00 | 0.15 | 0.00 | 96 | 1016.0 |
| 20260506081556 | 10 | 0 | 0.0 | 0.0 | 0.00 | 0.15 | 0.00 | 95 | 1016.1 |
| 20260506081040 | 10 | 0 | 0.0 | 0.0 | 0.00 | 0.15 | 0.00 | 95 | 1016.2 |
| 20260506080540 | 10 | 0 | 0.0 | 0.0 | 0.00 | 0.15 | 0.00 | 95 | 1016.3 |
| 20260506073047 | 10 | 0 | 0.0 | 0.0 | 0.00 | 0.23 | 0.00 | 95 | 1016.4 |
| 20260506072539 | 11 | 0 | 0.0 | 0.0 | 0.00 | 0.23 | 0.00 | 95 | 1016.1 |
| 20260506072039 | 11 | 0 | 0.0 | 0.0 | 0.00 | 0.23 | 0.00 | 95 | 1016.0 |
| 20260506071548 | 11 | 0 | 0.0 | 0.0 | 0.00 | 0.23 | 0.00 | 95 | 1016.0 |
| 20260506071039 | 11 | 0 | 0.0 | 0.0 | 0.00 | 0.23 | 0.00 | 95 | 1015.8 |
| 20260506070540 | 11 | 0 | 0.0 | 0.0 | 0.00 | 0.23 | 0.00 | 95 | 1015.7 |
| 20260506062039 | 11 | 0 | 0.0 | 0.0 | 0.00 | 0.25 | 0.23 | 94 | 1015.1 |
| 20260506061548 | 11 | 0 | 0.0 | 0.0 | 0.00 | 0.25 | 0.23 | 93 | 1015.0 |
| 20260506061039 | 11 | 0 | 0.0 | 0.0 | 0.00 | 0.25 | 0.23 | 93 | 1015.1 |
| 20260506060540 | 11 | 0 | 0.0 | 0.0 | 0.00 | 0.25 | 0.23 | 93 | 1015.1 |
| 20260506051039 | 12 | 0 | 0.0 | 0.0 | 0.00 | 0.25 | 0.23 | 92 | 1014.7 |
| 20260506050539 | 12 | 0 | 0.0 | 0.0 | 0.00 | 0.25 | 0.23 | 91 | 1014.7 |
| 20260506045041 | 12 | 0 | 0.0 | 0.0 | 0.00 | 0.25 | 0.23 | 90 | 1014.4 |
| 20260506044548 | 12 | 0 | 0.0 | 0.0 | 0.00 | 0.25 | 0.23 | 90 | 1014.4 |
| 20260506044041 | 12 | 0 | 0.0 | 0.0 | 0.00 | 0.25 | 0.23 | 90 | 1014.4 |
| 20260506043537 | 12 | 0 | 0.0 | 0.0 | 0.00 | 0.25 | 0.23 | 90 | 1014.3 |
| 20260506043048 | 12 | 0 | 0.0 | 0.0 | 0.00 | 0.25 | 0.23 | 89 | 1014.2 |
| 20260506042540 | 12 | 0 | 0.0 | 0.0 | 0.00 | 0.25 | 0.23 | 89 | 1014.2 |
| 20260506042040 | 13 | 0 | 0.0 | 0.0 | 0.00 | 0.25 | 0.23 | 88 | 1014.1 |
| 20260506041602 | 13 | 0 | 0.0 | 0.0 | 0.00 | 0.25 | 0.23 | 88 | 1014.1 |
| 20260506041039 | 13 | 0 | 0.0 | 0.0 | 0.00 | 0.25 | 0.23 | 87 | 1014.1 |
| 20260506040539 | 13 | 0 | 0.0 | 0.0 | 0.00 | 0.25 | 0.23 | 87 | 1014.0 |
| 20260506040054 | 13 | 0 | 0.0 | 0.0 | 0.00 | 0.25 | 0.23 | 86 | 1013.9 |
| 20260506035539 | 13 | 0 | 0.0 | 0.0 | 0.00 | 0.25 | 0.23 | 86 | 1013.9 |
| 20260506035039 | 13 | 0 | 0.0 | 0.0 | 0.00 | 0.25 | 0.23 | 85 | 1013.9 |
| 20260506034553 | 13 | 0 | 0.0 | 0.0 | 0.00 | 0.25 | 0.23 | 84 | 1013.9 |
| 20260506034041 | 14 | 0 | 0.0 | 0.0 | 0.00 | 0.25 | 0.23 | 84 | 1013.8 |
| 20260506033539 | 14 | 0 | 0.0 | 0.0 | 0.00 | 0.25 | 0.23 | 83 | 1013.7 |
| 20260506033051 | 14 | 0 | 0.0 | 0.0 | 0.00 | 0.25 | 0.23 | 81 | 1013.6 |
| 20260506032541 | 15 | 0 | 0.0 | 0.0 | 0.00 | 0.25 | 0.23 | 81 | 1013.6 |
| 20260506032038 | 15 | 0 | 0.0 | 0.0 | 0.00 | 0.25 | 0.23 | 80 | 1013.5 |
| 20260506031551 | 15 | 0 | 0.0 | 0.0 | 0.00 | 0.25 | 0.23 | 78 | 1013.4 |
| 20260506031037 | 15 | 0 | 0.0 | 0.0 | 0.00 | 0.25 | 0.23 | 78 | 1013.3 |
| 20260506030539 | 15 | 0 | 0.0 | 1.6 | 0.00 | 0.25 | 0.23 | 78 | 1013.4 |
| 20260506030049 | 15 | 0 | 0.0 | 3.2 | 0.00 | 0.25 | 0.23 | 77 | 1013.3 |
| 20260506025539 | 15 | 0 | 0.0 | 3.2 | 0.00 | 0.25 | 0.23 | 77 | 1013.3 |
| 20260506025039 | 16 | 356 | 0.0 | 1.6 | 0.00 | 0.25 | 0.23 | 77 | 1013.4 |
| 20260506024552 | 16 | 359 | 0.0 | 1.6 | 0.00 | 0.25 | 0.23 | 76 | 1013.4 |
| 20260506024040 | 16 | 0 | 0.0 | 1.6 | 0.00 | 0.25 | 0.23 | 76 | 1013.2 |
| 20260506023540 | 16 | 0 | 0.0 | 6.4 | 0.00 | 0.25 | 0.23 | 75 | 1013.3 |
| 20260506023102 | 16 | 11 | 0.0 | 6.4 | 0.00 | 0.25 | 0.23 | 75 | 1013.2 |
| 20260506022539 | 16 | 339 | 0.0 | 4.8 | 0.00 | 0.25 | 0.23 | 75 | 1013.2 |
| 20260506022039 | 16 | 5 | 0.0 | 4.8 | 0.00 | 0.25 | 0.23 | 75 | 1013.1 |
| 20260506021609 | 16 | 0 | 0.0 | 1.6 | 0.00 | 0.25 | 0.23 | 74 | 1013.1 |
| 20260506021044 | 16 | 0 | 0.0 | 1.6 | 0.00 | 0.25 | 0.23 | 74 | 1013.0 |
| 20260506020539 | 16 | 0 | 0.0 | 1.6 | 0.00 | 0.25 | 0.23 | 74 | 1013.1 |
| 20260506020050 | 16 | 0 | 0.0 | 1.6 | 0.00 | 0.25 | 0.23 | 74 | 1013.0 |
| 20260506015541 | 16 | 0 | 0.0 | 0.0 | 0.00 | 0.25 | 0.23 | 74 | 1012.9 |
| 20260506015044 | 16 | 0 | 0.0 | 0.0 | 0.00 | 0.25 | 0.23 | 74 | 1012.9 |
| 20260506014553 | 16 | 0 | 0.0 | 1.6 | 0.00 | 0.25 | 0.23 | 73 | 1012.8 |
| 20260506014042 | 16 | 0 | 0.0 | 1.6 | 0.00 | 0.25 | 0.23 | 73 | 1012.8 |
| 20260506013541 | 16 | 17 | 0.0 | 1.6 | 0.00 | 0.25 | 0.23 | 74 | 1012.8 |
| 20260506013057 | 16 | 0 | 0.0 | 1.6 | 0.00 | 0.25 | 0.23 | 74 | 1012.9 |
| 20260506012539 | 16 | 0 | 0.0 | 3.2 | 0.00 | 0.25 | 0.23 | 74 | 1013.0 |
| 20260506012040 | 16 | 0 | 0.0 | 3.2 | 0.00 | 0.25 | 0.23 | 73 | 1013.0 |
| 20260506011606 | 16 | 0 | 0.0 | 3.2 | 0.00 | 0.25 | 0.23 | 74 | 1012.9 |
| 20260506011039 | 16 | 312 | 0.0 | 4.8 | 0.00 | 0.25 | 0.23 | 74 | 1013.1 |
| 20260506010539 | 16 | 0 | 0.0 | 4.8 | 0.00 | 0.25 | 0.23 | 74 | 1013.0 |
| 20260506010057 | 16 | 348 | 0.0 | 3.2 | 0.00 | 0.25 | 0.23 | 73 | 1013.0 |
| 20260506005543 | 16 | 0 | 0.0 | 1.6 | 0.00 | 0.25 | 0.23 | 74 | 1013.1 |
| 20260506005038 | 16 | 0 | 0.0 | 3.2 | 0.00 | 0.25 | 0.23 | 74 | 1013.0 |
| 20260506004550 | 16 | 19 | 0.0 | 3.2 | 0.00 | 0.25 | 0.23 | 74 | 1013.0 |
| 20260506004039 | 16 | 23 | 0.0 | 1.6 | 0.00 | 0.25 | 0.23 | 73 | 1013.0 |
| 20260506003536 | 16 | 0 | 0.0 | 0.0 | 0.00 | 0.25 | 0.23 | 72 | 1013.0 |
| 20260506003049 | 16 | 0 | 0.0 | 1.6 | 0.00 | 0.25 | 0.23 | 73 | 1013.0 |
| 20260506002539 | 16 | 0 | 0.0 | 1.6 | 0.00 | 0.25 | 0.23 | 73 | 1013.0 |
| 20260506002039 | 16 | 0 | 0.0 | 1.6 | 0.00 | 0.25 | 0.23 | 72 | 1012.9 |
| 20260506001555 | 16 | 0 | 0.0 | 1.6 | 0.00 | 0.25 | 0.23 | 72 | 1012.9 |
| 20260506001037 | 16 | 0 | 0.0 | 1.6 | 0.00 | 0.25 | 0.23 | 73 | 1012.9 |
| 20260506000542 | 16 | 0 | 0.0 | 1.6 | 0.00 | 0.25 | 0.23 | 73 | 1012.8 |
| 20260506000054 | 16 | 0 | 0.0 | 1.6 | 0.00 | 0.25 | 0.23 | 73 | 1012.8 |
| 20260505235539 | 16 | 0 | 0.0 | 3.2 | 0.00 | 0.25 | 0.23 | 74 | 1012.8 |
| 20260505235039 | 16 | 0 | 0.0 | 4.8 | 0.00 | 0.25 | 0.23 | 73 | 1012.8 |
| 20260505234552 | 16 | 0 | 0.0 | 6.4 | 0.00 | 0.25 | 0.23 | 73 | 1012.7 |
| 20260505234039 | 16 | 0 | 0.0 | 6.4 | 0.00 | 0.25 | 0.23 | 72 | 1012.7 |
| 20260505233540 | 16 | 359 | 1.6 | 4.8 | 0.00 | 0.25 | 0.23 | 72 | 1012.7 |
| 20260505233053 | 17 | 334 | 0.0 | 3.2 | 0.00 | 0.25 | 0.23 | 72 | 1012.7 |
| 20260505232539 | 17 | 20 | 0.0 | 3.2 | 0.00 | 0.25 | 0.23 | 72 | 1012.6 |
| 20260505232044 | 17 | 0 | 0.0 | 8.0 | 0.00 | 0.25 | 0.23 | 71 | 1012.6 |
| 20260505231608 | 17 | 0 | 0.0 | 8.0 | 0.00 | 0.25 | 0.23 | 70 | 1012.6 |
| 20260505231039 | 17 | 19 | 1.6 | 8.0 | 0.00 | 0.25 | 0.23 | 71 | 1012.7 |
| 20260505230539 | 16 | 0 | 0.0 | 8.0 | 0.00 | 0.25 | 0.23 | 72 | 1012.5 |
| 20260505230053 | 17 | 335 | 1.6 | 4.8 | 0.00 | 0.25 | 0.23 | 71 | 1012.6 |
| 20260505225539 | 17 | 0 | 0.0 | 0.0 | 0.00 | 0.25 | 0.23 | 71 | 1012.5 |
| 20260505225039 | 16 | 0 | 0.0 | 3.2 | 0.00 | 0.25 | 0.23 | 72 | 1012.7 |
| 20260505224555 | 16 | 0 | 0.0 | 4.8 | 0.00 | 0.25 | 0.23 | 72 | 1012.7 |
| 20260505224040 | 16 | 334 | 0.0 | 8.0 | 0.00 | 0.25 | 0.23 | 72 | 1012.6 |
| 20260505223542 | 16 | 0 | 1.6 | 8.0 | 0.00 | 0.25 | 0.23 | 74 | 1012.7 |
| 20260505223053 | 16 | 0 | 0.0 | 1.6 | 0.00 | 0.25 | 0.23 | 74 | 1012.7 |
| 20260505222545 | 16 | 0 | 0.0 | 1.6 | 0.00 | 0.25 | 0.23 | 74 | 1012.7 |
| 20260505222041 | 16 | 0 | 0.0 | 1.6 | 0.00 | 0.25 | 0.23 | 75 | 1012.8 |
| 20260505221602 | 16 | 0 | 0.0 | 1.6 | 0.00 | 0.25 | 0.23 | 74 | 1012.8 |
| 20260505221042 | 16 | 0 | 0.0 | 0.0 | 0.00 | 0.25 | 0.23 | 74 | 1012.8 |
| 20260505220540 | 16 | 0 | 0.0 | 1.6 | 0.00 | 0.25 | 0.23 | 74 | 1012.8 |
| 20260505220100 | 16 | 0 | 0.0 | 1.6 | 0.00 | 0.25 | 0.23 | 75 | 1012.8 |
| 20260505215541 | 16 | 0 | 0.0 | 1.6 | 0.00 | 0.25 | 0.23 | 73 | 1012.8 |
| 20260505215040 | 16 | 0 | 0.0 | 1.6 | 0.00 | 0.25 | 0.23 | 73 | 1012.8 |
| 20260505214556 | 16 | 0 | 0.0 | 1.6 | 0.00 | 0.25 | 0.23 | 73 | 1012.8 |
| 20260505214043 | 16 | 0 | 0.0 | 1.6 | 0.00 | 0.25 | 0.23 | 73 | 1012.9 |
| 20260505213541 | 16 | 0 | 0.0 | 1.6 | 0.00 | 0.25 | 0.23 | 74 | 1012.9 |
| 20260505213052 | 16 | 225 | 0.0 | 1.6 | 0.00 | 0.25 | 0.23 | 74 | 1012.9 |
| 20260505212541 | 16 | 0 | 0.0 | 1.6 | 0.00 | 0.25 | 0.23 | 75 | 1012.8 |
| 20260505212041 | 17 | 0 | 0.0 | 1.6 | 0.00 | 0.25 | 0.23 | 73 | 1012.9 |
| 20260505211549 | 17 | 0 | 0.0 | 1.6 | 0.00 | 0.25 | 0.23 | 73 | 1013.0 |
| 20260505211043 | 17 | 0 | 0.0 | 1.6 | 0.00 | 0.25 | 0.23 | 72 | 1013.0 |
| 20260505210541 | 17 | 0 | 0.0 | 1.6 | 0.00 | 0.25 | 0.23 | 73 | 1012.9 |
| 20260505210051 | 17 | 0 | 0.0 | 1.6 | 0.00 | 0.25 | 0.23 | 72 | 1013.0 |
| 20260505205542 | 17 | 0 | 0.0 | 1.6 | 0.00 | 0.25 | 0.23 | 71 | 1012.9 |
| 20260505205041 | 17 | 0 | 0.0 | 1.6 | 0.00 | 0.25 | 0.23 | 73 | 1012.9 |
| 20260505204553 | 17 | 0 | 0.0 | 4.8 | 0.00 | 0.25 | 0.23 | 74 | 1012.9 |
| 20260505204041 | 17 | 0 | 0.0 | 4.8 | 0.00 | 0.25 | 0.23 | 73 | 1012.9 |
| 20260505203545 | 17 | 218 | 0.0 | 8.0 | 0.00 | 0.25 | 0.23 | 72 | 1013.0 |
| 20260505203110 | 17 | 0 | 1.6 | 8.0 | 0.00 | 0.25 | 0.23 | 73 | 1012.9 |
| 20260505202540 | 16 | 0 | 0.0 | 1.6 | 0.00 | 0.25 | 0.23 | 73 | 1012.9 |
| 20260505202040 | 16 | 209 | 0.0 | 1.6 | 0.00 | 0.25 | 0.23 | 74 | 1012.9 |
| 20260505201600 | 16 | 0 | 0.0 | 4.8 | 0.00 | 0.25 | 0.23 | 76 | 1013.0 |
| 20260505201041 | 16 | 0 | 0.0 | 4.8 | 0.00 | 0.25 | 0.23 | 76 | 1013.0 |
| 20260505200541 | 16 | 0 | 0.0 | 1.6 | 0.00 | 0.25 | 0.23 | 75 | 1013.0 |
| 20260505200053 | 16 | 0 | 0.0 | 1.6 | 0.00 | 0.25 | 0.23 | 74 | 1013.0 |
| 20260505195544 | 16 | 0 | 0.0 | 1.6 | 0.00 | 0.25 | 0.23 | 75 | 1013.2 |
| 20260505195041 | 16 | 0 | 0.0 | 3.2 | 0.00 | 0.25 | 0.23 | 77 | 1013.1 |
| 20260505194548 | 16 | 0 | 0.0 | 4.8 | 0.00 | 0.25 | 0.23 | 79 | 1013.1 |
| 20260505194040 | 15 | 210 | 0.0 | 4.8 | 0.00 | 0.25 | 0.23 | 78 | 1013.1 |
| 20260505193540 | 15 | 0 | 0.0 | 6.4 | 0.00 | 0.25 | 0.23 | 81 | 1013.1 |
| 20260505193052 | 15 | 0 | 0.0 | 6.4 | 0.00 | 0.25 | 0.23 | 80 | 1013.0 |
| 20260505192540 | 15 | 5 | 1.6 | 6.4 | 0.00 | 0.25 | 0.23 | 79 | 1013.1 |
| 20260505192042 | 15 | 0 | 0.0 | 4.8 | 0.00 | 0.25 | 0.23 | 83 | 1013.1 |
| 20260505191600 | 15 | 0 | 0.0 | 1.6 | 0.00 | 0.25 | 0.23 | 85 | 1013.1 |
| 20260505191039 | 15 | 0 | 0.0 | 0.0 | 0.00 | 0.25 | 0.23 | 86 | 1013.1 |
| 20260505190540 | 15 | 0 | 0.0 | 0.0 | 0.00 | 0.25 | 0.23 | 88 | 1013.0 |
| 20260505190051 | 15 | 0 | 0.0 | 3.2 | 0.00 | 0.25 | 0.23 | 95 | 1013.0 |
| 20260505185540 | 14 | 0 | 0.0 | 3.2 | 0.00 | 0.25 | 0.23 | 96 | 1013.1 |
| 20260505185040 | 14 | 0 | 0.0 | 4.8 | 0.00 | 0.25 | 0.23 | 96 | 1013.2 |
| 20260505184552 | 14 | 0 | 0.0 | 4.8 | 0.00 | 0.25 | 0.23 | 97 | 1013.1 |
| 20260505184040 | 13 | 0 | 0.0 | 4.8 | 0.00 | 0.25 | 0.23 | 96 | 1013.0 |
| 20260505183546 | 13 | 4 | 0.0 | 4.8 | 0.00 | 0.25 | 0.23 | 97 | 1013.1 |
| 20260505183050 | 13 | 231 | 0.0 | 6.4 | 0.00 | 0.25 | 0.23 | 97 | 1013.1 |
| 20260505182541 | 13 | 0 | 0.0 | 8.0 | 0.00 | 0.25 | 0.23 | 97 | 1013.0 |
| 20260505182042 | 13 | 343 | 0.0 | 8.0 | 0.00 | 0.25 | 0.23 | 97 | 1013.1 |
| 20260505181554 | 13 | 334 | 0.0 | 3.2 | 0.00 | 0.25 | 0.23 | 97 | 1013.0 |
| 20260505181040 | 12 | 224 | 0.0 | 4.8 | 0.00 | 0.25 | 0.23 | 97 | 1012.9 |
| 20260505180540 | 12 | 0 | 0.0 | 4.8 | 0.00 | 0.25 | 0.23 | 97 | 1013.0 |
| 20260505180100 | 12 | 320 | 0.0 | 3.2 | 0.00 | 0.25 | 0.23 | 98 | 1013.0 |
| 20260505175539 | 12 | 0 | 0.0 | 3.2 | 0.00 | 0.25 | 0.23 | 98 | 1013.0 |
| 20260505175042 | 12 | 0 | 0.0 | 4.8 | 0.00 | 0.25 | 0.23 | 98 | 1012.9 |
| 20260505174552 | 12 | 0 | 0.0 | 4.8 | 0.00 | 0.25 | 0.23 | 98 | 1012.9 |
| 20260505174042 | 12 | 25 | 0.0 | 3.2 | 0.00 | 0.25 | 0.23 | 98 | 1012.8 |
| 20260505173539 | 12 | 0 | 0.0 | 6.4 | 0.00 | 0.25 | 0.23 | 98 | 1012.8 |
| 20260505173056 | 12 | 11 | 0.0 | 6.4 | 0.00 | 0.25 | 0.23 | 98 | 1012.7 |
| 20260505172611 | 12 | 280 | 0.0 | 6.4 | 0.00 | 0.25 | 0.23 | 98 | 1012.7 |
| 20260505172039 | 11 | 0 | 0.0 | 4.8 | 0.00 | 0.25 | 0.23 | 98 | 1012.8 |
| 20260505171554 | 11 | 0 | 0.0 | 4.8 | 0.00 | 0.25 | 0.23 | 98 | 1012.8 |
| 20260505171042 | 11 | 6 | 0.0 | 4.8 | 0.00 | 0.25 | 0.23 | 98 | 1012.8 |
| 20260505170539 | 11 | 0 | 0.0 | 6.4 | 0.00 | 0.25 | 0.23 | 98 | 1012.7 |
| 20260505170108 | 11 | 0 | 0.0 | 6.4 | 0.00 | 0.25 | 0.23 | 98 | 1012.8 |
| 20260505165539 | 11 | 214 | 0.0 | 6.4 | 0.00 | 0.25 | 0.23 | 98 | 1012.7 |
| 20260505165043 | 11 | 0 | 0.0 | 6.4 | 0.00 | 0.25 | 0.23 | 98 | 1012.7 |
| 20260505164553 | 11 | 8 | 1.6 | 4.8 | 0.00 | 0.25 | 0.23 | 98 | 1012.8 |
| 20260505164040 | 11 | 0 | 0.0 | 4.8 | 0.00 | 0.25 | 0.23 | 98 | 1012.8 |
| 20260505163540 | 11 | 0 | 0.0 | 4.8 | 0.00 | 0.25 | 0.23 | 98 | 1012.7 |
| 20260505163053 | 11 | 23 | 0.0 | 6.4 | 0.00 | 0.25 | 0.23 | 98 | 1012.8 |
| 20260505162542 | 11 | 0 | 0.0 | 6.4 | 0.00 | 0.25 | 0.23 | 98 | 1012.8 |
| 20260505162041 | 11 | 0 | 0.0 | 1.6 | 0.00 | 0.25 | 0.23 | 98 | 1012.8 |
| 20260505161556 | 11 | 0 | 0.0 | 1.6 | 0.00 | 0.25 | 0.23 | 98 | 1012.7 |
| 20260505161041 | 11 | 0 | 0.0 | 1.6 | 0.00 | 0.25 | 0.23 | 98 | 1012.8 |
| 20260505160541 | 11 | 0 | 0.0 | 4.8 | 0.00 | 0.25 | 0.23 | 98 | 1012.8 |
| 20260505153103 | 10 | 304 | 0.0 | 3.2 | 0.03 | 0.30 | 0.23 | 98 | 1012.7 |
| 20260505152540 | 10 | 0 | 0.0 | 3.2 | 0.03 | 0.30 | 0.23 | 98 | 1012.6 |
| 20260505152039 | 11 | 39 | 0.0 | 0.0 | 0.03 | 0.30 | 0.23 | 98 | 1012.6 |
| 20260505151602 | 11 | 0 | 0.0 | 0.0 | 0.03 | 0.30 | 0.23 | 98 | 1012.4 |
| 20260505151040 | 10 | 0 | 0.0 | 0.0 | 0.03 | 0.30 | 0.23 | 98 | 1012.5 |
| 20260505150542 | 10 | 0 | 0.0 | 0.0 | 0.03 | 0.30 | 0.23 | 98 | 1012.3 |
| 20260505140541 | 10 | 0 | 0.0 | 0.0 | 0.03 | 0.28 | 0.20 | 98 | 1012.0 |